Location: El Manguito
(10.2358°N, 67.3634°W)
Time: 00:16:28
(UTC+00:00)

Aurora 2 Rocket - Pass Details

Date: 15 December 2025
Orbit: 385 x 1540 km, 25.0° (Epoch: 20 January)

Event Time Altitude Azimuth Distance (km) Brightness Sun altitude
Exits shadow 09:33:00 22° 298° (WNW) 2,161 4.7 -15.8°
Maximum altitude 09:36:17 31° 340° (NNW) 1,614 4.3 -15.0°
Drops below altitude 10° 09:41:21 10° 42° (NE) 2,352 5.8 -13.9°
Sets 09:43:46 0° 53° (NE) 3,101 6.6 -13.3°
